Flag for Moldova Weather past 2 weeks in Bălți, Moldova

Now
77 °F

Scattered clouds.


Feels Like: 79 °F
Forecast: 62 / 77 °F
Wind: 8 mph from West

Location: Baltsi-Leadoveni - The North of Moldova

Current Time: Jul 1, 2015 at 6:48:23 PM

Latest Report: Jul 1, 2015 at 6:00 PM


Visibility: N/A

Pressure: 30.09 "Hg

Humidity: 47%

Dew point: 55 °F

Location of BălțiLocation

Historic Weather in Bălți — Graph

°F

Bălți temperature yesterday

Maximum temperature yesterday: 82 °F (at 2:30 PM)
Minimum temperature yesterday: 59 °F (at 5:30 AM)
Average temperature yesterday: 71 °F

Past Weeks' High & Low Weather Summary

 TemperatureHumidityPressure
High82 °F (Jun 24, 2:00 PM)100% (Jun 22, 6:30 AM)30.18 "Hg (Jun 22, 6:30 AM)
Low52 °F (Jun 18, 5:00 AM)28% (Jun 19, 2:00 PM)29.77 "Hg (Jun 19, 2:00 PM)
Average67 °F56%29.92 "Hg
* Reported Jun 16 5:00 PM — Jul 1 5:00 PM, Bălți, Weather by CustomWeather, © 2015

Note: Actual official high and low records may vary slightly from our data, if they occured in-between our weather recording intervals... More about our weather records

Advertising

Bălți weather history for previous 24 hours

 ConditionsComfort  
Time TempWeatherWind HumidityBarometerVisibility
5:00 PM
Wed, Jul 1
79 °FScattered clouds.5 mph45%30.09 "HgN/A
4:00 PM77 °FScattered clouds.8 mph51%30.12 "HgN/A
3:00 PM75 °FThundershowers. Partly sunny.7 mph57%30.12 "HgN/A
2:30 PM75 °FSprinkles. Partly sunny.7 mph50%30.12 "HgN/A
2:00 PM77 °FScattered clouds.5 mph44%30.15 "HgN/A
1:00 PM77 °FPassing clouds.2 mph51%30.15 "HgN/A
12:00 PM73 °FPassing clouds.6 mph61%30.15 "HgN/A
11:30 AM72 °FPassing clouds.6 mph61%30.18 "HgN/A
11:00 AM70 °FPassing clouds.6 mph69%30.18 "HgN/A
10:00 AM66 °FPassing clouds.5 mph73%30.15 "HgN/A
9:00 AM64 °FPassing clouds.6 mph78%30.15 "HgN/A
8:00 AM63 °FMild.7 mph83%30.15 "HgN/A
7:00 AM63 °FMild.7 mph77%30.12 "HgN/A
6:00 AM61 °FCool.8 mph83%30.12 "HgN/A
5:30 AM61 °FCool.7 mph83%30.12 "HgN/A
5:00 AM61 °FCool.9 mph77%30.09 "HgN/A
4:00 AM61 °FCool.9 mph77%30.09 "HgN/A
3:30 AM61 °FCool.9 mph77%30.09 "HgN/A
3:00 AM63 °FMild.12 mph73%30.09 "HgN/A
2:30 AM63 °FMild.14 mph73%30.09 "HgN/A
2:00 AM64 °FMild.13 mph68%30.09 "HgN/A
1:00 AM64 °FMild.8 mph68%30.09 "HgN/A
12:00 AM64 °FMild.8 mph68%30.09 "HgN/A
11:30 PM
Tue, Jun 30
68 °FMild.9 mph60%30.09 "HgN/A
11:00 PM68 °FMild.10 mph60%30.09 "HgN/A
10:00 PM70 °FMild.12 mph57%30.07 "HgN/A
9:00 PM72 °FMild.6 mph50%30.07 "HgN/A
8:00 PM75 °FMild.8 mph36%30.04 "HgN/A
7:30 PM77 °FPassing clouds.5 mph34%30.04 "HgN/A
7:00 PM77 °FPassing clouds.7 mph34%30.04 "HgN/A
6:00 PM79 °FPassing clouds.12 mph32%30.04 "HgN/A
Weather by CustomWeather, © 2015

See weather overviewHow to use our weather pages